This demonstration page uses our WeatherBlox Daily Observations layout. Learn more.

Left ArrowRight Arrow

Hourly Observations for October 19, 2021

Temp ( °F °C ) Dew Point ( °F °C ) Humidity (%) Winds ( mph kmh ) Pressure ( in mb ) Visibility ( mi km ) Precip ( " mm )
12:56 am 00:56 Clear 54 12.2 43 6.1 67 67 SSE 10 17 29.80 1009 10 16 N/A
1:56 am 01:56 Clear 52 11.1 43 6.1 72 72 SSE 8 13 29.79 1009 10 16 N/A
2:56 am 02:56 Clear 51 10.6 43 6.1 74 74 SSE 8 13 29.78 1008 10 16 N/A
3:56 am 03:56 Clear 49 9.4 43 6.1 80 80 SSE 7 11 29.77 1008 10 16 N/A
4:56 am 04:56 Clear 48 8.9 43 6.1 83 83 SSE 10 17 29.76 1008 10 16 N/A
5:56 am 05:56 Clear 47 8.3 43 6.1 86 86 SSE 8 13 29.76 1008 10 16 N/A
6:56 am 06:56 Clear 46 7.8 42 5.6 86 86 SSE 5 7 29.77 1008 10 16 N/A
7:56 am 07:56 Sunny 45 7.2 41 5 86 86 SE 6 9 29.78 1008 10 16 N/A
8:56 am 08:56 Sunny 50 10 45 7.2 83 83 SSE 7 11 29.78 1009 10 16 N/A
9:56 am 09:56 Sunny 56 13.3 46 7.8 70 70 SSE 14 22 29.78 1009 10 16 N/A
10:56 am 10:56 Sunny 61 16.1 47 8.3 60 60 S 16 26 29.78 1009 10 16 N/A
11:56 am 11:56 Sunny 65 18.3 48 8.9 54 54 SSE 15 24 29.76 1008 10 16 N/A
12:56 pm 12:56 Sunny 68 20 49 9.4 51 51 SSE 18 30 29.74 1007 10 16 N/A
1:56 pm 13:56 Sunny 72 22.2 49 9.4 44 44 SSE 16 26 29.72 1006 10 16 N/A
2:56 pm 14:56 Sunny 74 23.3 50 10 43 43 SE 18 30 29.70 1006 10 16 N/A
3:56 pm 15:56 Sunny 75 23.9 50 10 41 41 SSE 17 28 29.70 1006 10 16 N/A
4:56 pm 16:56 Sunny 74 23.3 51 10.6 45 45 SSE 17 28 29.71 1006 10 16 N/A
5:56 pm 17:56 Sunny 72 22.2 52 11.1 50 50 SE 17 28 29.72 1007 10 16 N/A
6:56 pm 18:56 Clear 68 20 53 11.7 59 59 SSE 14 22 29.74 1007 10 16 N/A
7:56 pm 19:56 Partly Cloudy 64 17.8 52 11.1 65 65 SE 10 17 29.76 1008 10 16 N/A
8:56 pm 20:56 Cloudy 66 18.9 54 12.2 65 65 SSE 10 17 29.78 1009 10 16 N/A
9:40 pm 21:40 Cloudy with Nearby Thunderstorms 66 19 55 13 68 68 WSW 12 19 29.76 1008 10 16 0.00 0.00
9:56 pm 21:56 Cloudy with Nearby Thunderstorms 67 19.4 55 12.8 66 66 SSW 6 9 29.80 1009 10 16 0.00 0.00
10:20 pm 22:20 Partly Cloudy 66 19 55 13 68 68 SE 14 22 29.73 1007 10 16 0.00 0.00
10:56 pm 22:56 Clear 64 17.8 55 12.8 73 73 SSE 10 17 29.77 1008 10 16 0.00 0.00
11:56 pm 23:56 Mostly Cloudy 62 16.7 56 13.3 80 80 NNW 7 11 29.80 1009 10 16 N/A

Powered by AerisWeather